User: anonymous   Login
Location: Bittelbronn
(48.4454°N, 8.5870°E)
Time: 13:13:14
(UTC+00:00)
Language:

Cosmos 1980 Rocket - Orbit

View from above orbital plane
View from above orbital plane
View from above satellite
View from above satellite

Ground track
Ground track

The orbit data is extracted from the following two-line orbital elements,

1 19650U 88102B   24202.80002305  .00000249  00000-0  15036-3 0  9991
2 19650  71.0016 327.2731 0015145 207.6091 152.4229 14.15987472842393
Epoch (UTC): 20 July 2024 19:12:01
Eccentricity: 0.0015145
inclination: 71.0016°
perigee height: 828 km
apogee height: 850 km
right ascension of ascending node: 327.2731°
argument of perigee: 207.6091°
revolutions per day: 14.15987472
mean anomaly at epoch: 152.4229°
orbit number at epoch: 84239

The dashed part of the orbit path shows where the satellite is in the earth's shadow,  

DLR